Flag for Canada Weather past 2 weeks in Shawinigan, Quebec, Canada

Now
64 °F

Mild.


Feels Like: 64 °F
Forecast: 55 / 74 °F
Wind: 5 mph from West

Location: Trois Rivieres

Current Time: Aug 28, 2015 at 11:20:56 PM

Latest Report: Aug 28, 2015 at 11:00 PM


Visibility: N/A

Pressure: 30.09 "Hg

Humidity: 76%

Dew point: 56 °F

Location of ShawiniganLocation

Historic Weather in Shawinigan — Graph

°F

Shawinigan temperature yesterday

Maximum temperature yesterday: 70 °F (at 4:00 PM)
Minimum temperature yesterday: 62 °F (at 11:00 PM)
Average temperature yesterday: 66 °F

Past Weeks' High & Low Weather Summary

 TemperatureHumidityPressure
High84 °F (Aug 19, 5:00 PM)100% (Aug 15, 7:00 AM)30.14 "Hg (Aug 15, 7:00 AM)
Low58 °F (Aug 28, 6:00 AM)48% (Aug 23, 4:00 PM)29.75 "Hg (Aug 24, 6:00 PM)
Average71 °F79%29.96 "Hg
* Reported Aug 13 10:00 PM — Aug 28 10:00 PM, Shawinigan, Weather by CustomWeather, © 2015

Note: Actual official high and low records may vary slightly from our data, if they occured in-between our weather recording intervals... More about our weather records

Advertising

Shawinigan weather history for previous 24 hours

 ConditionsComfort  
Time TempWeatherWind HumidityBarometerVisibility
10:00 PM
Fri, Aug 28
67 °FMild.10 mph71%30.09 "HgN/A
9:00 PM68 °FMild.15 mph78%30.08 "HgN/A
8:00 PM70 °FMild.16 mph75%30.06 "HgN/A
7:00 PM71 °FMild.18 mph74%30.05 "HgN/A
6:00 PM72 °FMild.17 mph68%30.05 "HgN/A
5:00 PM72 °FMild.15 mph67%30.05 "HgN/A
4:00 PM71 °FMild.15 mph66%30.06 "HgN/A
3:00 PM71 °FMild.14 mph65%30.07 "HgN/A
2:00 PM70 °FMild.13 mph67%30.09 "HgN/A
1:00 PM68 °FMild.14 mph70%30.10 "HgN/A
12:00 PM67 °FMild.13 mph75%30.12 "HgN/A
11:00 AM64 °FMild.13 mph83%30.12 "HgN/A
10:00 AM63 °FMild.10 mph88%30.12 "HgN/A
9:00 AM62 °FCool.5 mph78%30.12 "HgN/A
8:00 AM59 °FCool.6 mph82%30.11 "HgN/A
7:00 AM58 °FCool.3 mph83%30.10 "HgN/A
6:00 AM58 °FCool.2 mph85%30.09 "HgN/A
5:00 AM58 °FCool.6 mph82%30.07 "HgN/A
4:00 AM58 °FCool.2 mph84%30.07 "HgN/A
3:00 AM59 °FCool.8 mph86%30.06 "HgN/A
2:00 AM60 °FCool.8 mph84%30.06 "HgN/A
1:00 AM60 °FCool.3 mph80%30.05 "HgN/A
12:00 AM60 °FCool.2 mph77%30.04 "HgN/A
11:00 PM
Thu, Aug 27
62 °FCool.3 mph74%30.04 "HgN/A
Weather by CustomWeather, © 2015

See weather overviewHow to use our weather pages